LB9CG Weather Reports


Display with metric or nautical units.
time (UTC)temp
F
wind
direction
speed
MPH
gust
MPH
rain 1hr
in
rain 24hr
in
rain mn
in
humidity
%
barometer
mb
20260506154016 43 225 3.0 8.0 0.00 0.00 0.00 74 1009.4
20260506153035 45 293 3.0 8.0 0.00 0.00 0.00 73 1009.4
20260506152016 44 225 2.0 8.0 0.00 0.00 0.00 76 1009.3
20260506151016 43 113 2.0 5.0 0.00 0.00 0.00 80 1009.3
20260506150016 43 225 1.0 6.0 0.00 0.00 0.00 81 1009.3
20260506145036 42 158 2.0 5.0 0.00 0.00 0.00 83 1009.4
20260506144016 42 225 2.0 7.0 0.00 0.00 0.00 86 1009.4
20260506143015 41 270 2.0 8.0 0.00 0.00 0.00 86 1009.4
20260506142016 41 293 3.0 8.0 0.00 0.00 0.00 86 1009.4
20260506141015 41 0.0 1.0 0.00 0.00 0.00 90 1009.4
20260506140015 40 90 5.0 8.0 0.00 0.00 0.00 88 1009.4
20260506135016 42 90 3.0 6.0 0.00 0.00 0.00 89 1009.2
20260506134016 41 293 1.0 3.0 0.00 0.00 0.00 89 1009.3
20260506133015 41 23 2.0 5.0 0.00 0.00 0.00 92 1009.4
20260506132016 39 0 1.0 3.0 0.00 0.00 0.00 90 1009.5
20260506131036 39 338 1.0 3.0 0.00 0.00 0.00 91 1009.5
20260506130015 38 23 1.0 2.0 0.00 0.00 0.00 90 1009.5
20260506125036 38 0 1.0 3.0 0.00 0.00 0.00 90 1009.5
20260506124015 38 0.0 1.0 0.00 0.00 0.00 91 1009.3
20260506123015 37 0.0 2.0 0.00 0.00 0.00 91 1009.2
20260506122035 37 23 1.0 3.0 0.00 0.00 0.00 89 1009.3
20260506121015 38 293 3.0 7.0 0.00 0.00 0.00 86 1009.3
20260506120015 41 270 4.0 13.0 0.00 0.00 0.00 80 1009.1
20260506115015 44 135 3.0 9.0 0.00 0.00 0.00 75 1008.6
20260506114015 43 248 3.0 12.0 0.00 0.00 0.00 74 1008.6
20260506113015 44 225 3.0 9.0 0.00 0.00 0.00 75 1008.6
20260506112017 42 203 2.0 6.0 0.00 0.00 0.00 78 1008.6
20260506111038 43 270 5.0 17.0 0.00 0.00 0.00 75 1008.5
20260506110017 44 225 2.0 5.0 0.00 0.00 0.00 78 1008.5
20260506105037 43 270 4.0 11.0 0.00 0.00 0.00 78 1008.3
20260506104018 43 203 3.0 11.0 0.00 0.00 0.00 79 1008.2
20260506102017 42 293 2.0 6.0 0.00 0.00 0.00 88 1008.0
20260506101017 41 248 1.0 4.0 0.00 0.00 0.00 90 1008.0
20260506100017 40 293 1.0 2.0 0.00 0.00 0.00 91 1007.9
20260506095017 39 293 1.0 2.0 0.00 0.00 0.00 90 1007.9
20260506094017 39 293 1.0 3.0 0.00 0.00 0.00 90 1007.9
20260506093017 39 0.0 2.0 0.00 0.00 0.00 90 1007.9
20260506092017 38 23 2.0 4.0 0.00 0.00 0.00 88 1007.8
20260506091017 40 45 2.0 6.0 0.00 0.00 0.00 85 1007.6
20260506090017 42 293 3.0 8.0 0.00 0.00 0.00 81 1007.6
20260506085017 43 225 1.0 6.0 0.00 0.00 0.00 87 1007.5
20260506084017 40 23 1.0 3.0 0.00 0.00 0.00 89 1007.5
20260506083017 38 158 2.0 8.0 0.00 0.00 0.00 90 1007.5
20260506082017 39 0 1.0 3.0 0.00 0.00 0.00 91 1007.5
20260506081017 38 293 1.0 3.0 0.00 0.00 0.00 90 1007.5
20260506073017 40 0.0 1.0 0.00 0.00 0.00 89 1007.0
20260506072017 39 0.0 1.0 0.00 0.00 0.00 90 1007.0
20260506071017 39 293 1.0 3.0 0.00 0.00 0.00 89 1007.0
20260506062017 39 203 2.0 5.0 0.00 0.00 0.00 87 1006.6
20260506061016 40 225 1.0 5.0 0.00 0.00 0.00 88 1006.5
20260506051037 37 158 1.0 4.0 0.00 0.00 0.00 95 1006.2
20260506045016 37 0.0 2.0 0.00 0.00 0.00 95 1006.2
20260506044016 36 0.0 1.0 0.00 0.00 0.00 95 1006.2
20260506043037 36 0.0 1.0 0.00 0.00 0.00 95 1006.2
20260506042016 36 0.0 1.0 0.00 0.00 0.00 96 1006.2
20260506041016 35 158 1.0 3.0 0.00 0.00 0.00 96 1006.2
20260506040016 35 45 2.0 7.0 0.00 0.00 0.00 95 1006.1
20260506035016 36 0.0 2.0 0.00 0.00 0.00 96 1006.1
20260506034016 35 270 2.0 9.0 0.00 0.00 0.00 96 1006.1
20260506033016 34 248 1.0 3.0 0.00 0.00 0.00 95 1005.6
20260506032016 34 0.0 2.0 0.00 0.00 0.00 95 1005.8
20260506031016 34 180 1.0 3.0 0.00 0.00 0.00 95 1005.8
20260506030016 34 0.0 2.0 0.00 0.00 0.00 95 1006.0
20260506025017 34 293 2.0 8.0 0.00 0.00 0.00 94 1006.2
20260506024016 34 293 1.0 10.0 0.00 0.00 0.00 94 1006.2
20260506023016 34 293 2.0 6.0 0.00 0.00 0.00 93 1006.1
20260506022016 35 45 1.0 2.0 0.00 0.00 0.00 94 1005.8
20260506021016 35 90 1.0 6.0 0.00 0.00 0.00 93 1005.5
20260506020016 36 293 4.0 11.0 0.00 0.00 0.00 93 1005.9
20260506015016 36 248 2.0 7.0 0.00 0.00 0.00 94 1005.6
20260506014036 35 203 2.0 6.0 0.00 0.00 0.00 95 1005.7
20260506013016 35 225 1.0 4.0 0.00 0.00 0.00 94 1005.7
20260506012016 35 225 2.0 6.0 0.00 0.00 0.00 94 1005.5
20260506011016 35 225 3.0 7.0 0.00 0.00 0.00 94 1005.4
20260506010016 36 248 2.0 8.0 0.00 0.00 0.00 94 1005.3
20260506005016 36 248 1.0 6.0 0.00 0.00 0.00 94 1005.4
20260506004016 36 225 1.0 6.0 0.00 0.00 0.00 94 1005.2
20260506003036 36 225 2.0 9.0 0.00 0.00 0.00 94 1005.2
20260506002016 36 293 3.0 9.0 0.00 0.00 0.00 93 1005.2
20260506001016 36 293 5.0 12.0 0.00 0.00 0.00 93 1005.2
20260506000016 37 293 4.0 11.0 0.00 0.00 0.00 93 1005.1
20260505235016 37 293 5.0 9.0 0.00 0.00 0.00 92 1005.0
20260505234016 37 293 3.0 12.0 0.00 0.00 0.00 93 1005.0
20260505233016 37 225 2.0 8.0 0.00 0.00 0.00 93 1005.0
20260505232016 36 293 3.0 8.0 0.00 0.00 0.00 94 1005.0
20260505231036 36 248 2.0 8.0 0.00 0.00 0.00 94 1005.1
20260505230016 36 225 3.0 8.0 0.00 0.00 0.00 95 1005.1
20260505225016 36 270 3.0 12.0 0.00 0.00 0.00 95 1005.2
20260505224016 36 270 2.0 8.0 0.00 0.00 0.00 96 1005.1
20260505223016 35 225 2.0 5.0 0.00 0.00 0.00 95 1005.0
20260505222035 34 180 3.0 8.0 0.00 0.00 0.00 94 1005.0
20260505221036 35 225 3.0 13.0 0.00 0.00 0.00 94 1004.9
20260505220016 35 270 4.0 15.0 0.00 0.00 0.00 94 1004.9
20260505215036 35 203 2.0 9.0 0.00 0.00 0.00 94 1004.8
20260505214036 34 225 3.0 9.0 0.00 0.00 0.00 94 1004.8
20260505213016 34 180 3.0 8.0 0.00 0.00 0.00 93 1004.9
20260505212016 35 225 2.0 9.0 0.00 0.00 0.00 93 1004.7
20260505211016 35 203 2.0 8.0 0.00 0.00 0.00 92 1004.8
20260505210016 35 158 3.0 8.0 0.00 0.00 0.00 91 1004.9
20260505205016 36 248 4.0 12.0 0.00 0.00 0.00 90 1004.8
20260505204036 36 293 4.0 13.0 0.00 0.00 0.00 90 1004.7
20260505203016 36 158 1.0 5.0 0.00 0.00 0.00 91 1004.8
20260505202016 36 225 3.0 11.0 0.00 0.00 0.00 91 1004.6
20260505201016 36 225 2.0 7.0 0.00 0.00 0.00 91 1004.6
20260505200036 36 270 1.0 6.0 0.00 0.00 0.00 92 1004.7
20260505195016 36 225 2.0 5.0 0.00 0.00 0.00 92 1004.6
20260505194016 36 293 2.0 6.0 0.00 0.00 0.00 92 1004.6
20260505193016 35 293 3.0 9.0 0.00 0.00 0.00 91 1004.6
20260505192016 36 293 5.0 15.0 0.00 0.00 0.00 89 1004.6
20260505191016 36 0.0 6.0 0.00 0.00 0.00 88 1004.5
20260505190016 36 293 2.0 6.0 0.00 0.00 0.00 89 1004.4
20260505185015 36 270 4.0 10.0 0.00 0.00 0.00 89 1004.4
20260505184016 36 270 1.0 5.0 0.00 0.00 0.00 89 1004.4
20260505183036 36 270 4.0 12.0 0.00 0.00 0.00 87 1004.7
20260505182016 37 270 5.0 14.0 0.00 0.00 0.00 86 1004.5
20260505181056 37 270 1.0 5.0 0.00 0.00 0.00 88 1004.3
20260505180015 36 270 1.0 3.0 0.00 0.00 0.00 89 1004.2
20260505175016 36 0.0 2.0 0.00 0.00 0.00 88 1004.1
20260505174016 36 158 2.0 7.0 0.00 0.00 0.00 86 1004.3
20260505173015 36 248 2.0 7.0 0.00 0.00 0.00 86 1004.7
20260505172016 36 225 2.0 8.0 0.00 0.00 0.00 83 1004.6
20260505171016 37 248 3.0 8.0 0.00 0.00 0.00 81 1004.7
20260505170015 37 248 5.0 14.0 0.00 0.00 0.00 82 1004.5
20260505165016 39 270 4.0 11.0 0.00 0.00 0.00 80 1004.6
20260505164015 40 293 4.0 16.0 0.00 0.00 0.00 76 1004.4
20260505163015 40 158 1.0 4.0 0.00 0.00 0.00 74 1004.2
20260505162015 41 270 3.0 11.0 0.00 0.00 0.00 73 1004.3
20260505161016 42 293 3.0 10.0 0.00 0.00 0.00 71 1004.2